Year,Month,Day,Hour,Minute,Value (Times are PST for temperature in C)
2016,08,19,00,00,24.40
2016,08,19,00,01,24.50
2016,08,19,00,02,24.60
2016,08,19,00,03,24.60
2016,08,19,00,04,24.60
2016,08,19,00,05,24.60
2016,08,19,00,06,24.50
2016,08,19,00,07,24.40
2016,08,19,00,08,24.30
2016,08,19,00,09,24.20
2016,08,19,00,10,24.20
2016,08,19,00,11,24.10
2016,08,19,00,12,24.30
2016,08,19,00,13,24.40
2016,08,19,00,14,24.40
2016,08,19,00,15,24.50
2016,08,19,00,16,24.60
2016,08,19,00,17,24.70
2016,08,19,00,18,24.70
2016,08,19,00,19,24.70
2016,08,19,00,20,24.80
2016,08,19,00,21,24.80
2016,08,19,00,22,24.80
2016,08,19,00,23,24.80
2016,08,19,00,24,24.90
2016,08,19,00,25,25.00
2016,08,19,00,26,25.00
2016,08,19,00,27,25.10
2016,08,19,00,28,25.20
2016,08,19,00,29,25.30
2016,08,19,00,30,25.30
2016,08,19,00,31,25.30
2016,08,19,00,32,25.30
2016,08,19,00,33,25.30
2016,08,19,00,34,25.30
2016,08,19,00,35,25.30
2016,08,19,00,36,25.30
2016,08,19,00,37,25.30
2016,08,19,00,38,25.30
2016,08,19,00,39,25.30
2016,08,19,00,40,25.20
2016,08,19,00,41,25.20
2016,08,19,00,42,25.20
2016,08,19,00,43,25.20
2016,08,19,00,44,25.20
2016,08,19,00,45,25.20
2016,08,19,00,46,25.20
2016,08,19,00,47,25.30
2016,08,19,00,48,25.30
2016,08,19,00,49,25.30
2016,08,19,00,50,25.30
2016,08,19,00,51,25.30
2016,08,19,00,52,25.30
2016,08,19,00,53,25.30
2016,08,19,00,54,25.40
2016,08,19,00,55,25.40
2016,08,19,00,56,25.40
2016,08,19,00,57,25.40
2016,08,19,00,58,25.30
2016,08,19,00,59,25.30
2016,08,19,01,00,25.30
2016,08,19,01,01,25.20
2016,08,19,01,02,25.10
2016,08,19,01,03,25.10
2016,08,19,01,04,25.00
2016,08,19,01,05,24.90
2016,08,19,01,06,24.70
2016,08,19,01,07,24.50
2016,08,19,01,08,24.30
2016,08,19,01,09,24.20
2016,08,19,01,10,23.90
2016,08,19,01,11,23.80
2016,08,19,01,12,23.70
2016,08,19,01,13,23.60
2016,08,19,01,14,23.60
2016,08,19,01,15,23.60
2016,08,19,01,16,23.60
2016,08,19,01,17,23.70
2016,08,19,01,18,23.70
2016,08,19,01,19,23.80
2016,08,19,01,20,23.90
2016,08,19,01,21,23.90
2016,08,19,01,22,23.90
2016,08,19,01,23,23.90
2016,08,19,01,24,23.90
2016,08,19,01,25,23.90
2016,08,19,01,26,23.90
2016,08,19,01,27,23.80
2016,08,19,01,28,23.80
2016,08,19,01,29,23.60
2016,08,19,01,30,23.60
2016,08,19,01,31,23.40
2016,08,19,01,32,23.30
2016,08,19,01,33,23.20
2016,08,19,01,34,23.10
2016,08,19,01,35,23.10
2016,08,19,01,36,23.10
2016,08,19,01,37,23.00
2016,08,19,01,38,22.90
2016,08,19,01,39,22.90
2016,08,19,01,40,22.80
2016,08,19,01,41,22.80
2016,08,19,01,42,22.60
2016,08,19,01,43,22.60
2016,08,19,01,44,22.50
2016,08,19,01,45,22.50
2016,08,19,01,46,22.50
2016,08,19,01,47,22.40
2016,08,19,01,48,22.50
2016,08,19,01,49,22.60
2016,08,19,01,50,22.60
2016,08,19,01,51,22.60
2016,08,19,01,52,22.60
2016,08,19,01,53,22.50
2016,08,19,01,54,22.50
2016,08,19,01,55,22.40
2016,08,19,01,56,22.30
2016,08,19,01,57,22.30
2016,08,19,01,58,22.20
2016,08,19,01,59,22.20
2016,08,19,02,00,22.20
2016,08,19,02,01,22.20
2016,08,19,02,02,22.10
2016,08,19,02,03,22.10
2016,08,19,02,04,22.10
2016,08,19,02,05,22.00
2016,08,19,02,06,21.90
2016,08,19,02,07,21.80
2016,08,19,02,08,21.70
2016,08,19,02,09,21.70
2016,08,19,02,10,21.70
2016,08,19,02,11,21.80
2016,08,19,02,12,21.80
2016,08,19,02,13,21.80
2016,08,19,02,14,21.80
2016,08,19,02,15,21.70
2016,08,19,02,16,21.60
2016,08,19,02,17,21.50
2016,08,19,02,18,21.40
2016,08,19,02,19,21.30
2016,08,19,02,20,21.30
2016,08,19,02,21,21.20
2016,08,19,02,22,21.10
2016,08,19,02,23,21.10
2016,08,19,02,24,21.00
2016,08,19,02,25,21.00
2016,08,19,02,26,20.90
2016,08,19,02,27,20.90
2016,08,19,02,28,20.80
2016,08,19,02,29,20.70
2016,08,19,02,30,20.50
2016,08,19,02,31,20.40
2016,08,19,02,32,20.40
2016,08,19,02,33,20.30
2016,08,19,02,34,20.20
2016,08,19,02,35,20.20
2016,08,19,02,36,20.20
2016,08,19,02,37,20.20
2016,08,19,02,38,20.30
2016,08,19,02,39,20.40
2016,08,19,02,40,20.40
2016,08,19,02,41,20.50
2016,08,19,02,42,20.50
2016,08,19,02,43,20.50
2016,08,19,02,44,20.50
2016,08,19,02,45,20.40
2016,08,19,02,46,20.40
2016,08,19,02,47,20.30
2016,08,19,02,48,20.20
2016,08,19,02,49,20.20
2016,08,19,02,50,20.10
2016,08,19,02,51,20.00
2016,08,19,02,52,19.90
2016,08,19,02,53,19.80
2016,08,19,02,54,19.80
2016,08,19,02,55,19.70
2016,08,19,02,56,19.60
2016,08,19,02,57,19.60
2016,08,19,02,58,19.50
2016,08,19,02,59,19.40
2016,08,19,03,00,19.40
2016,08,19,03,01,19.30
2016,08,19,03,02,19.30
2016,08,19,03,03,19.30
2016,08,19,03,04,19.20
2016,08,19,03,05,19.20
2016,08,19,03,06,19.20
2016,08,19,03,07,19.20
2016,08,19,03,08,19.10
2016,08,19,03,09,19.10
2016,08,19,03,10,19.00
2016,08,19,03,11,19.00
2016,08,19,03,12,18.90
2016,08,19,03,13,18.80
2016,08,19,03,14,18.80
2016,08,19,03,15,18.70
2016,08,19,03,16,18.60
2016,08,19,03,17,18.60
2016,08,19,03,18,18.60
2016,08,19,03,19,18.60
2016,08,19,03,20,18.60
2016,08,19,03,21,18.60
2016,08,19,03,22,18.70
2016,08,19,03,23,18.80
2016,08,19,03,24,18.90
2016,08,19,03,25,19.10
2016,08,19,03,26,19.20
2016,08,19,03,27,19.30
2016,08,19,03,28,19.30
2016,08,19,03,29,19.30
2016,08,19,03,30,19.30
2016,08,19,03,31,19.40
2016,08,19,03,32,19.50
2016,08,19,03,33,19.60
2016,08,19,03,34,19.60
2016,08,19,03,35,19.60
2016,08,19,03,36,19.60
2016,08,19,03,37,19.50
2016,08,19,03,38,19.40
2016,08,19,03,39,19.40
2016,08,19,03,40,19.30
2016,08,19,03,41,19.30
2016,08,19,03,42,19.40
2016,08,19,03,43,19.40
2016,08,19,03,44,19.40
2016,08,19,03,45,19.40
2016,08,19,03,46,19.30
2016,08,19,03,47,19.30
2016,08,19,03,48,19.30
2016,08,19,03,49,19.30
2016,08,19,03,50,19.40
2016,08,19,03,51,19.40
2016,08,19,03,52,19.40
2016,08,19,03,53,19.50
2016,08,19,03,54,19.60
2016,08,19,03,55,19.70
2016,08,19,03,56,19.80
2016,08,19,03,57,19.80
2016,08,19,03,58,19.90
2016,08,19,03,59,20.00
2016,08,19,04,00,20.10
2016,08,19,04,01,20.20
2016,08,19,04,02,20.30
2016,08,19,04,03,20.40
2016,08,19,04,04,20.60
2016,08,19,04,05,20.70
2016,08,19,04,06,20.70
2016,08,19,04,07,20.80
2016,08,19,04,08,20.80
2016,08,19,04,09,20.90
2016,08,19,04,10,20.90
2016,08,19,04,11,21.00
2016,08,19,04,12,21.10
2016,08,19,04,13,21.10
2016,08,19,04,14,21.10
2016,08,19,04,15,21.20
2016,08,19,04,16,21.20
2016,08,19,04,17,21.20
2016,08,19,04,18,21.20
2016,08,19,04,19,21.20
2016,08,19,04,20,21.30
2016,08,19,04,21,21.30
2016,08,19,04,22,21.30
2016,08,19,04,23,21.30
2016,08,19,04,24,21.30
2016,08,19,04,25,21.30
2016,08,19,04,26,21.30
2016,08,19,04,27,21.30
2016,08,19,04,28,21.40
2016,08,19,04,29,21.40
2016,08,19,04,30,21.40
2016,08,19,04,31,21.40
2016,08,19,04,32,21.40
2016,08,19,04,33,21.40
2016,08,19,04,34,21.40
2016,08,19,04,35,21.40
2016,08,19,04,36,21.40
2016,08,19,04,37,21.40
2016,08,19,04,38,21.40
2016,08,19,04,39,21.40
2016,08,19,04,40,21.40
2016,08,19,04,41,21.40
2016,08,19,04,42,21.40
2016,08,19,04,43,21.40
2016,08,19,04,44,21.40
2016,08,19,04,45,21.40
2016,08,19,04,46,21.50
2016,08,19,04,47,21.50
2016,08,19,04,48,21.50
2016,08,19,04,49,21.50
2016,08,19,04,50,21.50
2016,08,19,04,51,21.40
2016,08,19,04,52,21.40
2016,08,19,04,53,21.40
2016,08,19,04,54,21.40
2016,08,19,04,55,21.40
2016,08,19,04,56,21.40
2016,08,19,04,57,21.40
2016,08,19,04,58,21.40
2016,08,19,04,59,21.40
2016,08,19,05,00,21.40
2016,08,19,05,01,21.40
2016,08,19,05,02,21.50
2016,08,19,05,03,21.50
2016,08,19,05,04,21.50
2016,08,19,05,05,21.50
2016,08,19,05,06,21.60
2016,08,19,05,07,21.60
2016,08,19,05,08,21.60
2016,08,19,05,09,21.60
2016,08,19,05,10,21.60
2016,08,19,05,11,21.60
2016,08,19,05,12,21.60
2016,08,19,05,13,21.60
2016,08,19,05,14,21.60
2016,08,19,05,15,21.60
2016,08,19,05,16,21.60
2016,08,19,05,17,21.60
2016,08,19,05,18,21.60
2016,08,19,05,19,21.60
2016,08,19,05,20,21.60
2016,08,19,05,21,21.50
2016,08,19,05,22,21.50
2016,08,19,05,23,21.50
2016,08,19,05,24,21.50
2016,08,19,05,25,21.50
2016,08,19,05,26,21.50
2016,08,19,05,27,21.50
2016,08,19,05,28,21.50
2016,08,19,05,29,21.50
2016,08,19,05,30,21.40
2016,08,19,05,31,21.40
2016,08,19,05,32,21.40
2016,08,19,05,33,21.40
2016,08,19,05,34,21.30
2016,08,19,05,35,21.30
2016,08,19,05,36,21.30
2016,08,19,05,37,21.30
2016,08,19,05,38,21.30
2016,08,19,05,39,21.20
2016,08,19,05,40,21.20
2016,08,19,05,41,21.20
2016,08,19,05,42,21.30
2016,08,19,05,43,21.30
2016,08,19,05,44,21.30
2016,08,19,05,45,21.30
2016,08,19,05,46,21.30
2016,08,19,05,47,21.40
2016,08,19,05,48,21.40
2016,08,19,05,49,21.40
2016,08,19,05,50,21.50
2016,08,19,05,51,21.50
2016,08,19,05,52,21.60
2016,08,19,05,53,21.60
2016,08,19,05,54,21.60
2016,08,19,05,55,21.60
2016,08,19,05,56,21.50
2016,08,19,05,57,21.50
2016,08,19,05,58,21.50
2016,08,19,05,59,21.40
2016,08,19,06,00,21.40
2016,08,19,06,01,21.40
2016,08,19,06,02,21.40
2016,08,19,06,03,21.40
2016,08,19,06,04,21.40
2016,08,19,06,05,21.40
2016,08,19,06,06,21.40
2016,08,19,06,07,21.50
2016,08,19,06,08,21.50
2016,08,19,06,09,21.60
2016,08,19,06,10,21.60
2016,08,19,06,11,21.60
2016,08,19,06,12,21.60
2016,08,19,06,13,21.60
2016,08,19,06,14,21.60
2016,08,19,06,15,21.60
2016,08,19,06,16,21.60
2016,08,19,06,17,21.60
2016,08,19,06,18,21.60
2016,08,19,06,19,21.60
2016,08,19,06,20,21.60
2016,08,19,06,21,21.60
2016,08,19,06,22,21.60
2016,08,19,06,23,21.60
2016,08,19,06,24,21.60
2016,08,19,06,25,21.50
2016,08,19,06,26,21.50
2016,08,19,06,27,21.40
2016,08,19,06,28,21.40
2016,08,19,06,29,21.40
2016,08,19,06,30,21.30
2016,08,19,06,31,21.30
2016,08,19,06,32,21.30
2016,08,19,06,33,21.30
2016,08,19,06,34,21.20
2016,08,19,06,35,21.20
2016,08,19,06,36,21.20
2016,08,19,06,37,21.20
2016,08,19,06,38,21.20
2016,08,19,06,39,21.20
2016,08,19,06,40,21.20
2016,08,19,06,41,21.20
2016,08,19,06,42,21.10
2016,08,19,06,43,21.10
2016,08,19,06,44,21.10
2016,08,19,06,45,21.10
2016,08,19,06,46,21.20
2016,08,19,06,47,21.20
2016,08,19,06,48,21.20
2016,08,19,06,49,21.30
2016,08,19,06,50,21.30
2016,08,19,06,51,21.30
2016,08,19,06,52,21.30
2016,08,19,06,53,21.30
2016,08,19,06,54,21.30
2016,08,19,06,55,21.40
2016,08,19,06,56,21.40
2016,08,19,06,57,21.40
2016,08,19,06,58,21.40
2016,08,19,06,59,21.40
2016,08,19,07,00,21.50
2016,08,19,07,01,21.50
2016,08,19,07,02,21.50
2016,08,19,07,03,21.60
2016,08,19,07,04,21.60
2016,08,19,07,05,21.60
2016,08,19,07,06,21.70
2016,08,19,07,07,21.70
2016,08,19,07,08,21.70
2016,08,19,07,09,21.70
2016,08,19,07,10,21.80
2016,08,19,07,11,21.80
2016,08,19,07,12,21.80
2016,08,19,07,13,21.80
2016,08,19,07,14,21.80
2016,08,19,07,15,21.80
2016,08,19,07,16,21.80
2016,08,19,07,17,21.80
2016,08,19,07,18,21.80
2016,08,19,07,19,21.90
2016,08,19,07,20,21.90
2016,08,19,07,21,22.00
2016,08,19,07,22,22.00
2016,08,19,07,23,22.10
2016,08,19,07,24,22.20
2016,08,19,07,25,22.30
2016,08,19,07,26,22.30
2016,08,19,07,27,22.40
2016,08,19,07,28,22.40
2016,08,19,07,29,22.50
2016,08,19,07,30,22.50
2016,08,19,07,31,22.60
2016,08,19,07,32,22.60
2016,08,19,07,33,22.70
2016,08,19,07,34,22.70
2016,08,19,07,35,22.80
2016,08,19,07,36,22.80
2016,08,19,07,37,22.90
2016,08,19,07,38,23.00
2016,08,19,07,39,23.00
2016,08,19,07,40,23.10
2016,08,19,07,41,23.10
2016,08,19,07,42,23.20
2016,08,19,07,43,23.20
2016,08,19,07,44,23.30
2016,08,19,07,45,23.30
2016,08,19,07,46,23.40
2016,08,19,07,47,23.40
2016,08,19,07,48,23.50
2016,08,19,07,49,23.50
2016,08,19,07,50,23.60
2016,08,19,07,51,23.60
2016,08,19,07,52,23.60
2016,08,19,07,53,23.60
2016,08,19,07,54,23.60
2016,08,19,07,55,23.70
2016,08,19,07,56,23.70
2016,08,19,07,57,23.70
2016,08,19,07,58,23.70
2016,08,19,07,59,23.80
2016,08,19,08,00,23.80
2016,08,19,08,01,23.80
2016,08,19,08,02,23.90
2016,08,19,08,03,23.90
2016,08,19,08,04,24.00
2016,08,19,08,05,24.00
2016,08,19,08,06,24.10
2016,08,19,08,07,24.10
2016,08,19,08,08,24.10
2016,08,19,08,09,24.10
2016,08,19,08,10,24.20
2016,08,19,08,11,24.20
2016,08,19,08,12,24.20
2016,08,19,08,13,24.30
2016,08,19,08,14,24.30
2016,08,19,08,15,24.30
2016,08,19,08,16,24.40
2016,08,19,08,17,24.40
2016,08,19,08,18,24.40
2016,08,19,08,19,24.50
2016,08,19,08,20,24.50
2016,08,19,08,21,24.60
2016,08,19,08,22,24.60
2016,08,19,08,23,24.60
2016,08,19,08,24,24.60
2016,08,19,08,25,24.70
2016,08,19,08,26,24.70
2016,08,19,08,27,24.70
2016,08,19,08,28,24.70
2016,08,19,08,29,24.80
2016,08,19,08,30,24.80
2016,08,19,08,31,24.80
2016,08,19,08,32,24.80
2016,08,19,08,33,24.80
2016,08,19,08,34,24.90
2016,08,19,08,35,24.90
2016,08,19,08,36,24.90
2016,08,19,08,37,24.90
2016,08,19,08,38,24.90
2016,08,19,08,39,24.90
2016,08,19,08,40,25.00
2016,08,19,08,41,25.00
2016,08,19,08,42,25.00
2016,08,19,08,43,25.10
2016,08,19,08,44,25.10
2016,08,19,08,45,25.20
2016,08,19,08,46,25.20
2016,08,19,08,47,25.30
2016,08,19,08,48,25.30
2016,08,19,08,49,25.40
2016,08,19,08,50,25.40
2016,08,19,08,51,25.50
2016,08,19,08,52,25.60
2016,08,19,08,53,25.70
2016,08,19,08,54,25.70
2016,08,19,08,55,25.70
2016,08,19,08,56,25.80
2016,08,19,08,57,25.80
2016,08,19,08,58,25.80
2016,08,19,08,59,25.80
2016,08,19,09,00,25.90
2016,08,19,09,01,25.90
2016,08,19,09,02,25.90
2016,08,19,09,03,25.90
2016,08,19,09,04,25.90
2016,08,19,09,05,25.90
2016,08,19,09,06,26.00
2016,08,19,09,07,26.00
2016,08,19,09,08,26.10
2016,08,19,09,09,26.10
2016,08,19,09,10,26.20
2016,08,19,09,11,26.20
2016,08,19,09,12,26.20
2016,08,19,09,13,26.20
2016,08,19,09,14,26.30
2016,08,19,09,15,26.20
2016,08,19,09,16,26.30
2016,08,19,09,17,26.30
2016,08,19,09,18,26.30
2016,08,19,09,19,26.40
2016,08,19,09,20,26.40
2016,08,19,09,21,26.40
2016,08,19,09,22,26.40
2016,08,19,09,23,26.50
2016,08,19,09,24,26.50
2016,08,19,09,25,26.60
2016,08,19,09,26,26.60
2016,08,19,09,27,26.60
2016,08,19,09,28,26.70
2016,08,19,09,29,26.70
2016,08,19,09,30,26.70
2016,08,19,09,31,26.80
2016,08,19,09,32,26.80
2016,08,19,09,33,26.80
2016,08,19,09,34,26.90
2016,08,19,09,35,27.00
2016,08,19,09,36,27.00
2016,08,19,09,37,27.00
2016,08,19,09,38,27.00
2016,08,19,09,39,26.90
2016,08,19,09,40,27.00
2016,08,19,09,41,27.00
2016,08,19,09,42,27.10
2016,08,19,09,43,27.10
2016,08,19,09,44,27.10
2016,08,19,09,45,27.20
2016,08,19,09,46,27.20
2016,08,19,09,47,27.30
2016,08,19,09,48,27.30
2016,08,19,09,49,27.40
2016,08,19,09,50,27.40
2016,08,19,09,51,27.50
2016,08,19,09,52,27.60
2016,08,19,09,53,27.60
2016,08,19,09,54,27.60
2016,08,19,09,55,27.50
2016,08,19,09,56,27.50
2016,08,19,09,57,27.50
2016,08,19,09,58,27.50
2016,08,19,09,59,27.60
2016,08,19,10,00,27.70
2016,08,19,10,01,27.70
2016,08,19,10,02,27.70
2016,08,19,10,03,27.80
2016,08,19,10,04,27.80
2016,08,19,10,05,27.90
2016,08,19,10,06,28.00
2016,08,19,10,07,28.10
2016,08,19,10,08,28.20
2016,08,19,10,09,28.20
2016,08,19,10,10,28.20
2016,08,19,10,11,28.20
2016,08,19,10,12,28.20
2016,08,19,10,13,28.20
2016,08,19,10,14,28.30
2016,08,19,10,15,28.40
2016,08,19,10,16,28.40
2016,08,19,10,17,28.30
2016,08,19,10,18,28.30
2016,08,19,10,19,28.20
2016,08,19,10,20,28.10
2016,08,19,10,21,28.10
2016,08,19,10,22,28.20
2016,08,19,10,23,28.20
2016,08,19,10,24,28.30
2016,08,19,10,25,28.30
2016,08,19,10,26,28.30
2016,08,19,10,27,28.40
2016,08,19,10,28,28.50
2016,08,19,10,29,28.50
2016,08,19,10,30,28.60
2016,08,19,10,31,28.60
2016,08,19,10,32,28.60
2016,08,19,10,33,28.60
2016,08,19,10,34,28.70
2016,08,19,10,35,28.70
2016,08,19,10,36,28.90
2016,08,19,10,37,29.00
2016,08,19,10,38,29.10
2016,08,19,10,39,29.30
2016,08,19,10,40,29.40
2016,08,19,10,41,29.40
2016,08,19,10,42,29.50
2016,08,19,10,43,29.60
2016,08,19,10,44,29.50
2016,08,19,10,45,29.30
2016,08,19,10,46,29.20
2016,08,19,10,47,29.30
2016,08,19,10,48,29.30
2016,08,19,10,49,29.30
2016,08,19,10,50,29.30
2016,08,19,10,51,29.40
2016,08,19,10,52,29.40
2016,08,19,10,53,29.40
2016,08,19,10,54,29.40
2016,08,19,10,55,29.40
2016,08,19,10,56,29.40
2016,08,19,10,57,29.40
2016,08,19,10,58,29.50
2016,08,19,10,59,29.60
2016,08,19,11,00,29.70
2016,08,19,11,01,29.70
2016,08,19,11,02,29.80
2016,08,19,11,03,29.80
2016,08,19,11,04,29.80
2016,08,19,11,05,29.80
2016,08,19,11,06,29.80
2016,08,19,11,07,29.80
2016,08,19,11,08,29.90
2016,08,19,11,09,30.10
2016,08,19,11,10,30.20
2016,08,19,11,11,30.20
2016,08,19,11,12,30.30
2016,08,19,11,13,30.30
2016,08,19,11,14,30.10
2016,08,19,11,15,30.00
2016,08,19,11,16,29.90
2016,08,19,11,17,29.80
2016,08,19,11,18,29.80
2016,08,19,11,19,29.90
2016,08,19,11,20,30.00
2016,08,19,11,21,30.10
2016,08,19,11,22,30.30
2016,08,19,11,23,30.40
2016,08,19,11,24,30.50
2016,08,19,11,25,30.60
2016,08,19,11,26,30.50
2016,08,19,11,27,30.40
2016,08,19,11,28,30.20
2016,08,19,11,29,30.00
2016,08,19,11,30,29.80
2016,08,19,11,31,29.70
2016,08,19,11,32,29.70
2016,08,19,11,33,29.60
2016,08,19,11,34,29.50
2016,08,19,11,35,29.30
2016,08,19,11,36,29.00
2016,08,19,11,37,28.70
2016,08,19,11,38,28.60
2016,08,19,11,39,28.60
2016,08,19,11,40,28.60
2016,08,19,11,41,28.70
2016,08,19,11,42,28.80
2016,08,19,11,43,28.90
2016,08,19,11,44,28.80
2016,08,19,11,45,28.60
2016,08,19,11,46,28.40
2016,08,19,11,47,28.30
2016,08,19,11,48,28.30
2016,08,19,11,49,28.40
2016,08,19,11,50,28.50
2016,08,19,11,51,28.70
2016,08,19,11,52,28.90
2016,08,19,11,53,29.00
2016,08,19,11,54,29.00
2016,08,19,11,55,29.10
2016,08,19,11,56,29.00
2016,08,19,11,57,28.90
2016,08,19,11,58,28.90
2016,08,19,11,59,28.80
2016,08,19,12,00,28.70
2016,08,19,12,01,28.60
2016,08,19,12,02,28.60
2016,08,19,12,03,28.70
2016,08,19,12,04,28.70
2016,08,19,12,05,28.70
2016,08,19,12,06,28.70
2016,08,19,12,07,28.90
2016,08,19,12,08,29.00
2016,08,19,12,09,29.20
2016,08,19,12,10,29.30
2016,08,19,12,11,29.60
2016,08,19,12,12,29.90
2016,08,19,12,13,30.20
2016,08,19,12,14,30.50
2016,08,19,12,15,30.70
2016,08,19,12,16,30.90
2016,08,19,12,17,31.10
2016,08,19,12,18,31.30
2016,08,19,12,19,31.40
2016,08,19,12,20,31.50
2016,08,19,12,21,31.50
2016,08,19,12,22,31.50
2016,08,19,12,23,31.60
2016,08,19,12,24,31.70
2016,08,19,12,25,31.80
2016,08,19,12,26,32.00
2016,08,19,12,27,32.10
2016,08,19,12,28,32.10
2016,08,19,12,29,32.20
2016,08,19,12,30,32.30
2016,08,19,12,31,32.50
2016,08,19,12,32,32.50
2016,08,19,12,33,32.60
2016,08,19,12,34,32.50
2016,08,19,12,35,32.50
2016,08,19,12,36,32.40
2016,08,19,12,37,32.30
2016,08,19,12,38,32.30
2016,08,19,12,39,32.20
2016,08,19,12,40,32.20
2016,08,19,12,41,32.20
2016,08,19,12,42,32.20
2016,08,19,12,43,32.20
2016,08,19,12,44,32.20
2016,08,19,12,45,32.30
2016,08,19,12,46,32.40
2016,08,19,12,47,32.50
2016,08,19,12,48,32.50
2016,08,19,12,49,32.60
2016,08,19,12,50,32.60
2016,08,19,12,51,32.60
2016,08,19,12,52,32.60
2016,08,19,12,53,32.50
2016,08,19,12,54,32.40
2016,08,19,12,55,32.30
2016,08,19,12,56,32.30
2016,08,19,12,57,32.40
2016,08,19,12,58,32.50
2016,08,19,12,59,32.50
2016,08,19,13,00,32.60
2016,08,19,13,01,32.70
2016,08,19,13,02,32.80
2016,08,19,13,03,32.80
2016,08,19,13,04,32.90
2016,08,19,13,05,32.90
2016,08,19,13,47,32.90
2016,08,19,13,48,32.70
2016,08,19,13,49,32.50
2016,08,19,13,50,32.40
2016,08,19,13,51,32.40
2016,08,19,13,52,32.50
2016,08,19,13,53,32.60
2016,08,19,13,54,32.60
2016,08,19,13,55,32.70
2016,08,19,13,56,32.70
2016,08,19,13,57,32.70
2016,08,19,13,58,32.70
2016,08,19,13,59,32.80
2016,08,19,14,00,32.80
2016,08,19,14,01,32.90
2016,08,19,16,34,32.90
2016,08,19,16,35,32.90
2016,08,19,16,36,32.90
2016,08,19,16,37,32.90
2016,08,19,16,38,32.90
2016,08,19,16,39,32.90
2016,08,19,16,40,32.90
2016,08,19,16,41,32.90
2016,08,19,16,42,32.90
2016,08,19,16,43,32.90
2016,08,19,16,44,32.90
2016,08,19,16,45,32.90
2016,08,19,16,48,32.90
2016,08,19,16,49,32.90
2016,08,19,16,50,32.90
2016,08,19,17,01,31.50
2016,08,19,17,02,31.30
2016,08,19,17,03,31.00
2016,08,19,17,04,30.70
2016,08,19,17,05,30.40
2016,08,19,17,06,30.10
2016,08,19,17,07,29.80
2016,08,19,17,08,29.50
2016,08,19,17,09,29.20
2016,08,19,17,10,29.10
2016,08,19,17,11,29.00
2016,08,19,17,12,28.90
2016,08,19,17,13,28.80
2016,08,19,17,14,28.60
2016,08,19,17,15,28.50
2016,08,19,17,16,28.40
2016,08,19,17,17,28.40
2016,08,19,17,18,28.40
2016,08,19,17,19,28.40
2016,08,19,17,20,28.40
2016,08,19,17,21,28.40
2016,08,19,17,22,28.30
2016,08,19,17,23,28.30
2016,08,19,17,24,28.30
2016,08,19,17,25,28.30
2016,08,19,17,26,28.30
2016,08,19,17,27,28.30
2016,08,19,17,28,28.40
2016,08,19,17,29,28.40
2016,08,19,17,30,28.40
2016,08,19,17,31,28.50
2016,08,19,17,32,28.50
2016,08,19,17,33,28.50
2016,08,19,17,34,28.50
2016,08,19,17,35,28.40
2016,08,19,17,36,28.30
2016,08,19,17,37,28.30
2016,08,19,17,38,28.20
2016,08,19,17,39,28.10
2016,08,19,17,40,28.10
2016,08,19,17,41,28.10
2016,08,19,17,42,28.10
2016,08,19,17,43,28.00
2016,08,19,17,44,28.00
2016,08,19,17,45,27.90
2016,08,19,17,46,27.80
2016,08,19,17,47,27.80
2016,08,19,17,48,27.70
2016,08,19,17,49,27.70
2016,08,19,17,50,27.60
2016,08,19,17,51,27.60
2016,08,19,17,52,27.50
2016,08,19,17,53,27.40
2016,08,19,17,54,27.30
2016,08,19,17,55,27.30
2016,08,19,17,56,27.30
2016,08,19,17,57,27.30
2016,08,19,17,58,27.20
2016,08,19,17,59,27.30
2016,08,19,18,00,27.30
2016,08,19,18,01,27.30
2016,08,19,18,02,27.30
2016,08,19,18,03,27.40
2016,08,19,18,04,27.50
2016,08,19,18,05,27.60
2016,08,19,18,06,27.70
2016,08,19,18,07,27.80
2016,08,19,18,08,27.90
2016,08,19,18,09,28.00
2016,08,19,18,10,28.20
2016,08,19,18,11,28.30
2016,08,19,18,12,28.40
2016,08,19,18,13,28.60
2016,08,19,18,14,28.70
2016,08,19,18,15,28.80
2016,08,19,18,16,28.90
2016,08,19,18,17,29.00
2016,08,19,18,18,29.10
2016,08,19,18,19,29.20
2016,08,19,18,20,29.20
2016,08,19,18,21,29.30
2016,08,19,18,22,29.40
2016,08,19,18,23,29.50
2016,08,19,18,24,29.60
2016,08,19,18,25,29.70
2016,08,19,18,26,29.80
2016,08,19,18,27,29.90
2016,08,19,18,28,30.00
2016,08,19,18,29,30.10
2016,08,19,18,30,30.10
2016,08,19,18,31,30.20
2016,08,19,18,32,30.20
2016,08,19,18,33,30.30
2016,08,19,18,34,30.40
2016,08,19,18,35,30.50
2016,08,19,18,36,30.50
2016,08,19,18,37,30.60
2016,08,19,18,38,30.70
2016,08,19,18,39,30.80
2016,08,19,18,40,30.90
2016,08,19,18,41,31.00
2016,08,19,18,42,31.10
2016,08,19,18,43,31.10
2016,08,19,18,44,31.20
2016,08,19,18,45,31.20
2016,08,19,18,46,31.20
2016,08,19,18,47,31.30
2016,08,19,18,48,31.30
2016,08,19,18,49,31.30
2016,08,19,18,50,31.30
2016,08,19,18,51,31.30
2016,08,19,18,52,31.30
2016,08,19,18,53,31.30
2016,08,19,18,54,31.30
2016,08,19,18,55,31.20
2016,08,19,18,56,31.20
2016,08,19,18,57,31.10
2016,08,19,18,58,31.00
2016,08,19,18,59,30.90
2016,08,19,19,00,30.90
2016,08,19,19,01,30.80
2016,08,19,19,02,30.70
2016,08,19,19,03,30.60
2016,08,19,19,04,30.50
2016,08,19,19,05,30.30
2016,08,19,19,06,30.20
2016,08,19,19,07,30.10
2016,08,19,19,08,29.90
2016,08,19,19,09,29.70
2016,08,19,19,10,29.60
2016,08,19,19,11,29.50
2016,08,19,19,12,29.40
2016,08,19,19,13,29.20
2016,08,19,19,14,29.10
2016,08,19,19,15,29.10
2016,08,19,19,16,29.00
2016,08,19,19,17,29.00
2016,08,19,19,18,28.90
2016,08,19,19,19,28.90
2016,08,19,19,20,28.80
2016,08,19,19,21,28.80
2016,08,19,19,22,28.70
2016,08,19,19,23,28.70
2016,08,19,19,24,28.60
2016,08,19,19,25,28.50
2016,08,19,19,26,28.40
2016,08,19,19,27,28.30
2016,08,19,19,28,28.20
2016,08,19,19,29,28.20
2016,08,19,19,30,28.20
2016,08,19,19,31,28.20
2016,08,19,19,32,28.10
2016,08,19,19,33,28.10
2016,08,19,19,34,28.00
2016,08,19,19,35,27.90
2016,08,19,19,36,27.90
2016,08,19,19,37,27.80
2016,08,19,19,38,27.80
2016,08,19,19,39,27.80
2016,08,19,19,40,27.80
2016,08,19,19,41,27.80
2016,08,19,19,42,27.80
2016,08,19,19,43,27.80
2016,08,19,19,44,27.80
2016,08,19,19,45,27.70
2016,08,19,19,46,27.70
2016,08,19,19,47,27.60
2016,08,19,19,48,27.50
2016,08,19,19,49,27.50
2016,08,19,19,50,27.40
2016,08,19,19,51,27.30
2016,08,19,19,52,27.20
2016,08,19,19,53,27.10
2016,08,19,19,54,27.00
2016,08,19,19,55,26.90
2016,08,19,19,56,26.80
2016,08,19,19,57,26.70
2016,08,19,19,58,26.60
2016,08,19,19,59,26.40
2016,08,19,20,00,26.30
2016,08,19,20,01,26.20
2016,08,19,20,02,26.00
2016,08,19,20,03,26.00
2016,08,19,20,04,25.90
2016,08,19,20,05,25.80
2016,08,19,20,06,25.70
2016,08,19,20,07,25.60
2016,08,19,20,08,25.60
2016,08,19,20,09,25.50
2016,08,19,20,10,25.40
2016,08,19,20,11,25.30
2016,08,19,20,12,25.30
2016,08,19,20,13,25.20
2016,08,19,20,14,25.10
2016,08,19,20,15,25.10
2016,08,19,20,16,25.00
2016,08,19,20,17,24.90
2016,08,19,20,18,24.80
2016,08,19,20,19,24.80
2016,08,19,20,20,24.70
2016,08,19,20,21,24.60
2016,08,19,20,22,24.60
2016,08,19,20,23,24.50
2016,08,19,20,24,24.40
2016,08,19,20,25,24.40
2016,08,19,20,26,24.30
2016,08,19,20,27,24.20
2016,08,19,20,28,24.10
2016,08,19,20,29,24.10
2016,08,19,20,30,24.00
2016,08,19,20,31,23.90
2016,08,19,20,32,23.90
2016,08,19,20,33,23.80
2016,08,19,20,34,23.80
2016,08,19,20,35,23.70
2016,08,19,20,36,23.70
2016,08,19,20,37,23.60
2016,08,19,20,38,23.60
2016,08,19,20,39,23.50
2016,08,19,20,40,23.50
2016,08,19,20,41,23.40
2016,08,19,20,42,23.40
2016,08,19,20,43,23.30
2016,08,19,20,44,23.20